| time (UTC) | temp F | wind direction | speed MPH | gust MPH | rain 1hr in | rain 24hr in | rain mn in | humidity % | barometer mb |
| 20260507192558 | 75 | 171 | 4.0 | 10.0 | 0.00 | 0.00 | 0.00 | 21 | 1009.6 |
| 20260507192054 | 76 | 231 | 7.0 | 14.0 | 0.00 | 0.00 | 0.00 | 22 | 1009.6 |
| 20260507191558 | 75 | 183 | 1.0 | 14.0 | 0.00 | 0.00 | 0.00 | 21 | 1009.7 |
| 20260507191053 | 75 | 263 | 8.0 | 13.0 | 0.00 | 0.00 | 0.00 | 22 | 1009.8 |
| 20260507190553 | 75 | 245 | 4.0 | 13.0 | 0.00 | 0.00 | 0.00 | 21 | 1010.0 |
| 20260507190057 | 75 | 215 | 5.0 | 11.0 | 0.00 | 0.00 | 0.00 | 22 | 1010.0 |
| 20260507185553 | 75 | 318 | 3.0 | 11.0 | 0.00 | 0.00 | 0.00 | 22 | 1010.1 |
| 20260507185048 | 75 | 258 | 3.0 | 11.0 | 0.00 | 0.00 | 0.00 | 23 | 1010.1 |
| 20260507184556 | 74 | 289 | 4.0 | 10.0 | 0.00 | 0.00 | 0.00 | 24 | 1010.2 |
| 20260507184047 | 75 | 261 | 7.0 | 10.0 | 0.00 | 0.00 | 0.00 | 23 | 1010.2 |
| 20260507183546 | 75 | 268 | 3.0 | 10.0 | 0.00 | 0.00 | 0.00 | 23 | 1010.2 |
| 20260507183048 | 75 | 270 | 3.0 | 6.0 | 0.00 | 0.00 | 0.00 | 23 | 1010.3 |
| 20260507182545 | 76 | 339 | 2.0 | 7.0 | 0.00 | 0.00 | 0.00 | 23 | 1010.4 |
| 20260507182044 | 75 | 90 | 1.0 | 9.0 | 0.00 | 0.00 | 0.00 | 23 | 1010.5 |
| 20260507181540 | 74 | 60 | 1.0 | 9.0 | 0.00 | 0.00 | 0.00 | 24 | 1010.5 |
| 20260507181039 | 74 | 355 | 3.0 | 9.0 | 0.00 | 0.00 | 0.00 | 24 | 1010.6 |
| 20260507180542 | 73 | 259 | 2.0 | 7.0 | 0.00 | 0.00 | 0.00 | 24 | 1010.7 |
| 20260507180039 | 73 | 262 | 2.0 | 9.0 | 0.00 | 0.00 | 0.00 | 24 | 1010.8 |
| 20260507175537 | 73 | 350 | 5.0 | 9.0 | 0.00 | 0.00 | 0.00 | 24 | 1010.9 |
| 20260507175033 | 73 | 248 | 3.0 | 7.0 | 0.00 | 0.00 | 0.00 | 27 | 1011.0 |
| 20260507174536 | 72 | 177 | 2.0 | 7.0 | 0.00 | 0.00 | 0.00 | 26 | 1010.9 |
| 20260507174034 | 72 | 179 | 3.0 | 7.0 | 0.00 | 0.00 | 0.00 | 26 | 1011.1 |
| 20260507173532 | 72 | 148 | 4.0 | 8.0 | 0.00 | 0.00 | 0.00 | 26 | 1011.1 |
| 20260507173032 | 72 | 151 | 3.0 | 7.0 | 0.00 | 0.00 | 0.00 | 27 | 1011.2 |
| 20260507172528 | 71 | 161 | 4.0 | 9.0 | 0.00 | 0.00 | 0.00 | 27 | 1011.2 |
| 20260507172026 | 71 | 189 | 5.0 | 9.0 | 0.00 | 0.00 | 0.00 | 27 | 1011.3 |
| 20260507171525 | 71 | 179 | 4.0 | 6.0 | 0.00 | 0.00 | 0.00 | 27 | 1011.4 |
| 20260507171024 | 71 | 170 | 1.0 | 6.0 | 0.00 | 0.00 | 0.00 | 28 | 1011.4 |
| 20260507170523 | 71 | 185 | 2.0 | 6.0 | 0.00 | 0.00 | 0.00 | 29 | 1011.4 |
| 20260507170022 | 70 | 96 | 0.0 | 5.0 | 0.00 | 0.00 | 0.00 | 28 | 1011.5 |
| 20260507165519 | 70 | 29 | 2.0 | 5.0 | 0.00 | 0.00 | 0.00 | 28 | 1011.7 |
| 20260507165018 | 70 | 27 | 3.0 | 8.0 | 0.00 | 0.00 | 0.00 | 29 | 1011.6 |
| 20260507164517 | 71 | 6 | 4.0 | 8.0 | 0.00 | 0.00 | 0.00 | 28 | 1011.7 |
| 20260507164016 | 70 | 128 | 1.0 | 4.0 | 0.00 | 0.00 | 0.00 | 28 | 1011.8 |
| 20260507163514 | 69 | 140 | 2.0 | 4.0 | 0.00 | 0.00 | 0.00 | 29 | 1011.9 |
| 20260507163012 | 68 | 337 | 2.0 | 4.0 | 0.00 | 0.00 | 0.00 | 30 | 1011.9 |
| 20260507162511 | 68 | 27 | 0.0 | 5.0 | 0.00 | 0.00 | 0.00 | 30 | 1012.0 |
| 20260507162010 | 67 | 36 | 2.0 | 9.0 | 0.00 | 0.00 | 0.00 | 31 | 1012.0 |
| 20260507161508 | 67 | 40 | 3.0 | 7.0 | 0.00 | 0.00 | 0.00 | 31 | 1012.2 |
| 20260507161006 | 66 | 341 | 2.0 | 6.0 | 0.00 | 0.00 | 0.00 | 29 | 1012.2 |
| 20260507160505 | 66 | 8 | 3.0 | 7.0 | 0.00 | 0.00 | 0.00 | 30 | 1012.4 |
| 20260507160004 | 66 | 50 | 3.0 | 7.0 | 0.00 | 0.00 | 0.00 | 31 | 1012.5 |
| 20260507155502 | 65 | 110 | 4.0 | 7.0 | 0.00 | 0.00 | 0.00 | 32 | 1012.5 |
| 20260507155001 | 65 | 22 | 3.0 | 7.0 | 0.00 | 0.00 | 0.00 | 35 | 1012.5 |
| 20260507154601 | 64 | 12 | 4.0 | 10.0 | 0.00 | 0.00 | 0.00 | 36 | 1012.5 |
| 20260507154101 | 63 | 43 | 4.0 | 10.0 | 0.00 | 0.00 | 0.00 | 36 | 1012.5 |
| 20260507153556 | 63 | 345 | 4.0 | 10.0 | 0.00 | 0.00 | 0.00 | 37 | 1012.5 |
| 20260507153059 | 62 | 27 | 5.0 | 10.0 | 0.00 | 0.00 | 0.00 | 38 | 1012.5 |
| 20260507152555 | 61 | 54 | 5.0 | 9.0 | 0.00 | 0.00 | 0.00 | 37 | 1012.5 |
| 20260507152051 | 61 | 14 | 3.0 | 9.0 | 0.00 | 0.00 | 0.00 | 38 | 1012.6 |
| 20260507151550 | 60 | 39 | 5.0 | 10.0 | 0.00 | 0.00 | 0.00 | 40 | 1012.6 |
| 20260507151049 | 60 | 360 | 6.0 | 10.0 | 0.00 | 0.00 | 0.00 | 40 | 1012.6 |
| 20260507150547 | 60 | 29 | 4.0 | 10.0 | 0.00 | 0.00 | 0.00 | 41 | 1012.6 |
| 20260507150046 | 59 | 14 | 7.0 | 11.0 | 0.00 | 0.00 | 0.00 | 41 | 1012.6 |
| 20260507145545 | 59 | 10 | 6.0 | 11.0 | 0.00 | 0.00 | 0.00 | 41 | 1012.6 |
| 20260507145043 | 59 | 29 | 5.0 | 9.0 | 0.00 | 0.00 | 0.00 | 42 | 1012.7 |
| 20260507144543 | 58 | 350 | 4.0 | 10.0 | 0.00 | 0.00 | 0.00 | 43 | 1012.7 |
| 20260507144040 | 58 | 33 | 5.0 | 11.0 | 0.00 | 0.00 | 0.00 | 43 | 1012.8 |
| 20260507143539 | 57 | 50 | 7.0 | 11.0 | 0.00 | 0.00 | 0.00 | 43 | 1012.8 |
| 20260507143038 | 57 | 37 | 8.0 | 12.0 | 0.00 | 0.00 | 0.00 | 44 | 1012.7 |
| 20260507142538 | 57 | 31 | 8.0 | 12.0 | 0.00 | 0.00 | 0.00 | 44 | 1012.8 |
| 20260507142035 | 56 | 17 | 8.0 | 12.0 | 0.00 | 0.00 | 0.00 | 45 | 1012.8 |
| 20260507141532 | 56 | 46 | 8.0 | 11.0 | 0.00 | 0.00 | 0.00 | 44 | 1012.8 |
| 20260507141035 | 55 | 40 | 5.0 | 11.0 | 0.00 | 0.00 | 0.00 | 44 | 1012.9 |
| 20260507140530 | 56 | 24 | 6.0 | 9.0 | 0.00 | 0.00 | 0.00 | 44 | 1012.9 |
| 20260507140031 | 56 | 33 | 4.0 | 7.0 | 0.00 | 0.00 | 0.00 | 44 | 1013.0 |
| 20260507135526 | 55 | 35 | 3.0 | 9.0 | 0.00 | 0.00 | 0.00 | 44 | 1012.8 |
| 20260507135025 | 55 | 85 | 4.0 | 7.0 | 0.00 | 0.00 | 0.00 | 44 | 1012.9 |
| 20260507134527 | 55 | 100 | 4.0 | 7.0 | 0.00 | 0.00 | 0.00 | 45 | 1012.8 |
| 20260507134021 | 54 | 54 | 3.0 | 6.0 | 0.00 | 0.00 | 0.00 | 46 | 1012.7 |
| 20260507133520 | 54 | 15 | 3.0 | 9.0 | 0.00 | 0.00 | 0.00 | 47 | 1012.5 |
| 20260507133018 | 53 | 31 | 4.0 | 10.0 | 0.00 | 0.00 | 0.00 | 47 | 1012.4 |
| 20260507132517 | 53 | 38 | 6.0 | 11.0 | 0.00 | 0.00 | 0.00 | 47 | 1012.4 |
| 20260507132015 | 52 | 25 | 6.0 | 11.0 | 0.00 | 0.00 | 0.00 | 47 | 1012.3 |
| 20260507131516 | 52 | 32 | 7.0 | 13.0 | 0.00 | 0.00 | 0.00 | 47 | 1012.2 |
| 20260507131014 | 52 | 51 | 7.0 | 14.0 | 0.00 | 0.00 | 0.00 | 48 | 1012.2 |
| 20260507130512 | 51 | 32 | 7.0 | 13.0 | 0.00 | 0.00 | 0.00 | 48 | 1012.2 |
| 20260507130010 | 51 | 27 | 7.0 | 13.0 | 0.00 | 0.00 | 0.00 | 48 | 1012.1 |
| 20260507125509 | 50 | 31 | 7.0 | 11.0 | 0.00 | 0.00 | 0.00 | 48 | 1012.1 |
| 20260507125007 | 50 | 38 | 5.0 | 12.0 | 0.00 | 0.00 | 0.00 | 47 | 1012.1 |
| 20260507124506 | 50 | 42 | 8.0 | 12.0 | 0.00 | 0.00 | 0.00 | 47 | 1012.1 |
| 20260507124006 | 50 | 50 | 8.0 | 12.0 | 0.00 | 0.00 | 0.00 | 46 | 1012.1 |
| 20260507123505 | 50 | 50 | 8.0 | 11.0 | 0.00 | 0.00 | 0.00 | 46 | 1012.0 |
| 20260507123006 | 50 | 48 | 6.0 | 10.0 | 0.00 | 0.00 | 0.00 | 45 | 1012.0 |
| 20260507122502 | 50 | 47 | 7.0 | 12.0 | 0.00 | 0.00 | 0.00 | 45 | 1012.0 |
| 20260507122001 | 50 | 47 | 8.0 | 13.0 | 0.00 | 0.00 | 0.00 | 45 | 1011.8 |
| 20260507121621 | 49 | 66 | 8.0 | 13.0 | 0.00 | 0.00 | 0.00 | 45 | 1011.8 |
| 20260507121100 | 49 | 66 | 7.0 | 12.0 | 0.00 | 0.00 | 0.00 | 44 | 1011.7 |
| 20260507120559 | 48 | 64 | 7.0 | 11.0 | 0.00 | 0.00 | 0.00 | 43 | 1011.8 |
| 20260507120105 | 48 | 64 | 6.0 | 11.0 | 0.00 | 0.00 | 0.00 | 43 | 1011.8 |
| 20260507115558 | 48 | 71 | 7.0 | 11.0 | 0.00 | 0.00 | 0.00 | 42 | 1011.7 |
| 20260507115056 | 48 | 60 | 5.0 | 9.0 | 0.00 | 0.00 | 0.00 | 42 | 1011.7 |
| 20260507114635 | 48 | 48 | 4.0 | 9.0 | 0.00 | 0.00 | 0.00 | 42 | 1011.7 |
| 20260507114059 | 48 | 66 | 5.0 | 9.0 | 0.00 | 0.00 | 0.00 | 42 | 1011.6 |
| 20260507113555 | 48 | 81 | 3.0 | 6.0 | 0.00 | 0.00 | 0.00 | 41 | 1011.6 |
| 20260507113055 | 48 | 68 | 3.0 | 5.0 | 0.00 | 0.00 | 0.00 | 40 | 1011.7 |
| 20260507112554 | 48 | 59 | 3.0 | 5.0 | 0.00 | 0.00 | 0.00 | 38 | 1011.6 |
| 20260507112054 | 48 | 91 | 2.0 | 6.0 | 0.00 | 0.00 | 0.00 | 37 | 1011.6 |
| 20260507111558 | 48 | 98 | 3.0 | 7.0 | 0.00 | 0.00 | 0.00 | 35 | 1011.6 |
| 20260507111053 | 48 | 84 | 3.0 | 7.0 | 0.00 | 0.00 | 0.00 | 34 | 1011.6 |
| 20260507110551 | 49 | 79 | 4.0 | 6.0 | 0.00 | 0.00 | 0.00 | 33 | 1011.8 |
| 20260507110051 | 49 | 104 | 2.0 | 7.0 | 0.00 | 0.00 | 0.00 | 33 | 1011.8 |
| 20260507105549 | 49 | 126 | 5.0 | 7.0 | 0.00 | 0.00 | 0.00 | 33 | 1011.7 |
| 20260507105047 | 50 | 76 | 4.0 | 5.0 | 0.00 | 0.00 | 0.00 | 32 | 1011.5 |
| 20260507104546 | 51 | 56 | 2.0 | 3.0 | 0.00 | 0.00 | 0.00 | 31 | 1011.5 |
| 20260507104045 | 51 | 56 | 0.0 | 5.0 | 0.00 | 0.00 | 0.00 | 31 | 1011.5 |
| 20260507103545 | 51 | 56 | 2.0 | 8.0 | 0.00 | 0.00 | 0.00 | 30 | 1011.4 |
| 20260507103045 | 51 | 76 | 5.0 | 9.0 | 0.00 | 0.00 | 0.00 | 31 | 1011.3 |
| 20260507102544 | 51 | 78 | 6.0 | 10.0 | 0.00 | 0.00 | 0.00 | 31 | 1011.3 |
| 20260507102045 | 51 | 110 | 6.0 | 9.0 | 0.00 | 0.00 | 0.00 | 31 | 1011.4 |
| 20260507101545 | 52 | 107 | 4.0 | 9.0 | 0.00 | 0.00 | 0.00 | 30 | 1011.4 |
| 20260507101040 | 52 | 51 | 5.0 | 9.0 | 0.00 | 0.00 | 0.00 | 30 | 1011.4 |
| 20260507100539 | 52 | 54 | 5.0 | 9.0 | 0.00 | 0.00 | 0.00 | 30 | 1011.2 |
| 20260507100039 | 52 | 54 | 6.0 | 10.0 | 0.00 | 0.00 | 0.00 | 29 | 1011.2 |
| 20260507095537 | 53 | 37 | 6.0 | 10.0 | 0.00 | 0.00 | 0.00 | 29 | 1011.1 |
| 20260507095037 | 53 | 41 | 6.0 | 11.0 | 0.00 | 0.00 | 0.00 | 29 | 1011.1 |
| 20260507094536 | 54 | 21 | 8.0 | 12.0 | 0.00 | 0.00 | 0.00 | 28 | 1011.1 |
| 20260507094037 | 54 | 31 | 7.0 | 12.0 | 0.00 | 0.00 | 0.00 | 28 | 1011.1 |
| 20260507093535 | 55 | 32 | 7.0 | 11.0 | 0.00 | 0.00 | 0.00 | 27 | 1011.0 |
| 20260507093035 | 55 | 46 | 7.0 | 11.0 | 0.00 | 0.00 | 0.00 | 27 | 1011.1 |
| 20260507092535 | 56 | 35 | 6.0 | 12.0 | 0.00 | 0.00 | 0.00 | 26 | 1011.0 |
| 20260507092034 | 56 | 28 | 7.0 | 12.0 | 0.00 | 0.00 | 0.00 | 25 | 1011.0 |
| 20260507091542 | 56 | 47 | 4.0 | 7.0 | 0.00 | 0.00 | 0.00 | 25 | 1011.0 |
| 20260507091034 | 56 | 50 | 4.0 | 9.0 | 0.00 | 0.00 | 0.00 | 25 | 1010.9 |
| 20260507090537 | 56 | 46 | 5.0 | 9.0 | 0.00 | 0.00 | 0.00 | 26 | 1010.9 |
| 20260507090038 | 56 | 50 | 6.0 | 9.0 | 0.00 | 0.00 | 0.00 | 26 | 1010.9 |
| 20260507085536 | 54 | 68 | 6.0 | 8.0 | 0.00 | 0.00 | 0.00 | 28 | 1011.0 |
| 20260507085034 | 53 | 87 | 3.0 | 6.0 | 0.00 | 0.00 | 0.00 | 29 | 1011.0 |
| 20260507084532 | 53 | 77 | 3.0 | 8.0 | 0.00 | 0.00 | 0.00 | 29 | 1011.0 |
| 20260507084033 | 53 | 63 | 5.0 | 7.0 | 0.00 | 0.00 | 0.00 | 30 | 1010.9 |
| 20260507083531 | 53 | 42 | 6.0 | 7.0 | 0.00 | 0.00 | 0.00 | 30 | 1010.9 |
| 20260507083032 | 54 | 40 | 5.0 | 7.0 | 0.00 | 0.00 | 0.00 | 29 | 1010.9 |
| 20260507082529 | 55 | 48 | 4.0 | 5.0 | 0.00 | 0.00 | 0.00 | 28 | 1010.9 |
| 20260507082027 | 55 | 59 | 3.0 | 5.0 | 0.00 | 0.00 | 0.00 | 27 | 1011.0 |
| 20260507081527 | 56 | 56 | 2.0 | 5.0 | 0.00 | 0.00 | 0.00 | 27 | 1011.0 |
| 20260507081027 | 56 | 56 | 3.0 | 8.0 | 0.00 | 0.00 | 0.00 | 26 | 1011.0 |
| 20260507080527 | 55 | 59 | 4.0 | 9.0 | 0.00 | 0.00 | 0.00 | 27 | 1011.0 |
| 20260507080027 | 55 | 81 | 7.0 | 9.0 | 0.00 | 0.00 | 0.00 | 27 | 1011.0 |
| 20260507075525 | 55 | 85 | 5.0 | 8.0 | 0.00 | 0.00 | 0.00 | 27 | 1010.9 |
| 20260507075024 | 56 | 84 | 4.0 | 6.0 | 0.00 | 0.00 | 0.00 | 26 | 1010.9 |
| 20260507074524 | 56 | 64 | 2.0 | 6.0 | 0.00 | 0.00 | 0.00 | 26 | 1010.9 |
| 20260507074022 | 56 | 55 | 4.0 | 9.0 | 0.00 | 0.00 | 0.00 | 26 | 1010.9 |
| 20260507073521 | 56 | 52 | 6.0 | 9.0 | 0.00 | 0.00 | 0.00 | 26 | 1010.9 |
| 20260507073021 | 55 | 60 | 5.0 | 8.0 | 0.00 | 0.00 | 0.00 | 26 | 1011.0 |
| 20260507072521 | 56 | 80 | 5.0 | 7.0 | 0.00 | 0.00 | 0.00 | 27 | 1011.1 |
| 20260507072019 | 56 | 69 | 4.0 | 6.0 | 0.00 | 0.00 | 0.00 | 26 | 1011.1 |
| 20260507071518 | 56 | 88 | 4.0 | 6.0 | 0.00 | 0.00 | 0.00 | 27 | 1011.1 |
| 20260507071017 | 56 | 80 | 3.0 | 6.0 | 0.00 | 0.00 | 0.00 | 27 | 1011.1 |
| 20260507070516 | 56 | 64 | 2.0 | 6.0 | 0.00 | 0.00 | 0.00 | 26 | 1011.1 |
| 20260507070017 | 57 | 63 | 3.0 | 6.0 | 0.00 | 0.00 | 0.00 | 26 | 1011.1 |
| 20260507065514 | 57 | 81 | 3.0 | 6.0 | 0.00 | 0.00 | 0.00 | 25 | 1011.1 |
| 20260507065014 | 57 | 66 | 4.0 | 6.0 | 0.00 | 0.00 | 0.00 | 25 | 1011.1 |
| 20260507064514 | 58 | 81 | 3.0 | 6.0 | 0.00 | 0.00 | 0.00 | 24 | 1011.0 |
| 20260507064013 | 57 | 71 | 5.0 | 9.0 | 0.00 | 0.00 | 0.00 | 24 | 1011.1 |
| 20260507063511 | 57 | 71 | 6.0 | 9.0 | 0.00 | 0.00 | 0.00 | 25 | 1011.1 |
| 20260507063011 | 57 | 83 | 7.0 | 9.0 | 0.00 | 0.00 | 0.00 | 25 | 1011.1 |
| 20260507062509 | 57 | 69 | 6.0 | 8.0 | 0.00 | 0.00 | 0.00 | 25 | 1011.1 |
| 20260507062108 | 57 | 69 | 5.0 | 7.0 | 0.00 | 0.00 | 0.00 | 26 | 1011.0 |
| 20260507061508 | 57 | 75 | 2.0 | 5.0 | 0.00 | 0.00 | 0.00 | 25 | 1011.0 |
| 20260507061007 | 57 | 73 | 4.0 | 6.0 | 0.00 | 0.00 | 0.00 | 25 | 1011.0 |
| 20260507060506 | 57 | 74 | 3.0 | 8.0 | 0.00 | 0.00 | 0.00 | 25 | 1011.0 |
| 20260507060005 | 57 | 74 | 5.0 | 8.0 | 0.00 | 0.00 | 0.00 | 25 | 1011.1 |
| 20260507055505 | 58 | 88 | 4.0 | 7.0 | 0.00 | 0.00 | 0.00 | 24 | 1011.1 |
| 20260507055003 | 58 | 88 | 5.0 | 8.0 | 0.00 | 0.00 | 0.00 | 23 | 1011.1 |
| 20260507054506 | 58 | 69 | 4.0 | 8.0 | 0.00 | 0.00 | 0.00 | 24 | 1011.0 |
| 20260507054001 | 59 | 110 | 2.0 | 4.0 | 0.00 | 0.00 | 0.00 | 24 | 1010.9 |
| 20260507053503 | 59 | 109 | 0.0 | 3.0 | 0.00 | 0.00 | 0.00 | 22 | 1010.8 |
| 20260507053001 | 60 | 110 | 1.0 | 6.0 | 0.00 | 0.00 | 0.00 | 22 | 1010.8 |
| 20260507052502 | 60 | 110 | 3.0 | 9.0 | 0.00 | 0.00 | 0.00 | 21 | 1010.7 |
| 20260507052002 | 61 | 107 | 3.0 | 9.0 | 0.00 | 0.00 | 0.00 | 21 | 1010.8 |
| 20260507051501 | 61 | 116 | 5.0 | 7.0 | 0.00 | 0.00 | 0.00 | 20 | 1010.9 |
| 20260507051001 | 62 | 96 | 4.0 | 7.0 | 0.00 | 0.00 | 0.00 | 20 | 1010.8 |
| 20260507050559 | 62 | 360 | 2.0 | 4.0 | 0.00 | 0.00 | 0.00 | 20 | 1010.8 |
| 20260507050059 | 63 | 291 | 1.0 | 5.0 | 0.00 | 0.00 | 0.00 | 19 | 1010.6 |
| 20260507045559 | 63 | 291 | 1.0 | 5.0 | 0.00 | 0.00 | 0.00 | 19 | 1010.6 |
| 20260507045057 | 64 | 219 | 3.0 | 5.0 | 0.00 | 0.00 | 0.00 | 18 | 1010.5 |
| 20260507044558 | 64 | 209 | 1.0 | 5.0 | 0.00 | 0.00 | 0.00 | 18 | 1010.5 |
| 20260507044057 | 64 | 210 | 2.0 | 6.0 | 0.00 | 0.00 | 0.00 | 18 | 1010.5 |
| 20260507043557 | 63 | 198 | 2.0 | 5.0 | 0.00 | 0.00 | 0.00 | 18 | 1010.5 |
| 20260507043056 | 63 | 226 | 2.0 | 8.0 | 0.00 | 0.00 | 0.00 | 19 | 1010.5 |
| 20260507042556 | 62 | 262 | 2.0 | 8.0 | 0.00 | 0.00 | 0.00 | 20 | 1010.3 |
| 20260507042056 | 62 | 161 | 4.0 | 6.0 | 0.00 | 0.00 | 0.00 | 20 | 1010.3 |
| 20260507041556 | 62 | 161 | 2.0 | 3.0 | 0.00 | 0.00 | 0.00 | 20 | 1010.2 |
| 20260507041056 | 62 | 161 | 2.0 | 6.0 | 0.00 | 0.00 | 0.00 | 20 | 1010.2 |
| 20260507040557 | 63 | 161 | 4.0 | 6.0 | 0.00 | 0.00 | 0.00 | 19 | 1010.2 |
| 20260507040100 | 65 | 177 | 3.0 | 4.0 | 0.00 | 0.00 | 0.00 | 18 | 1010.1 |
| 20260507035555 | 65 | 293 | 0.0 | 4.0 | 0.00 | 0.00 | 0.00 | 17 | 1010.1 |
| 20260507035055 | 66 | 293 | 1.0 | 8.0 | 0.00 | 0.00 | 0.00 | 17 | 1010.1 |
| 20260507034557 | 66 | 292 | 4.0 | 10.0 | 0.00 | 0.00 | 0.00 | 17 | 1009.9 |
| 20260507034054 | 66 | 253 | 6.0 | 13.0 | 0.00 | 0.00 | 0.00 | 17 | 1009.8 |
| 20260507033554 | 67 | 265 | 7.0 | 13.0 | 0.00 | 0.00 | 0.00 | 16 | 1009.7 |
| 20260507033100 | 67 | 274 | 8.0 | 14.0 | 0.00 | 0.00 | 0.00 | 16 | 1009.7 |
| 20260507032554 | 67 | 246 | 8.0 | 14.0 | 0.00 | 0.00 | 0.00 | 16 | 1009.7 |
| 20260507032055 | 66 | 241 | 7.0 | 12.0 | 0.00 | 0.00 | 0.00 | 16 | 1009.6 |
| 20260507031553 | 66 | 255 | 4.0 | 10.0 | 0.00 | 0.00 | 0.00 | 16 | 1009.5 |
| 20260507031053 | 66 | 245 | 5.0 | 10.0 | 0.00 | 0.00 | 0.00 | 16 | 1009.5 |
| 20260507030556 | 66 | 222 | 3.0 | 5.0 | 0.00 | 0.00 | 0.00 | 16 | 1009.5 |
| 20260507030053 | 67 | 245 | 3.0 | 7.0 | 0.00 | 0.00 | 0.00 | 16 | 1009.4 |
| 20260507025552 | 67 | 240 | 4.0 | 7.0 | 0.00 | 0.00 | 0.00 | 15 | 1009.3 |
| 20260507025152 | 66 | 270 | 3.0 | 5.0 | 0.00 | 0.00 | 0.00 | 16 | 1009.3 |
| 20260507024604 | 67 | 306 | 0.0 | 5.0 | 0.00 | 0.00 | 0.00 | 16 | 1009.1 |
| 20260507024055 | 67 | 305 | 2.0 | 5.0 | 0.00 | 0.00 | 0.00 | 15 | 1009.1 |
| 20260507023555 | 68 | 310 | 3.0 | 6.0 | 0.00 | 0.00 | 0.00 | 15 | 1008.9 |
| 20260507023052 | 68 | 265 | 2.0 | 11.0 | 0.00 | 0.00 | 0.00 | 15 | 1008.8 |
| 20260507022555 | 69 | 250 | 6.0 | 11.0 | 0.00 | 0.00 | 0.00 | 15 | 1008.8 |
| 20260507022050 | 69 | 249 | 5.0 | 14.0 | 0.00 | 0.00 | 0.00 | 14 | 1008.6 |
| 20260507021552 | 69 | 228 | 8.0 | 14.0 | 0.00 | 0.00 | 0.00 | 14 | 1008.6 |
| 20260507021049 | 69 | 227 | 5.0 | 13.0 | 0.00 | 0.00 | 0.00 | 14 | 1008.6 |
| 20260507020549 | 70 | 235 | 8.0 | 13.0 | 0.00 | 0.00 | 0.00 | 14 | 1008.4 |
| 20260507020106 | 70 | 242 | 4.0 | 13.0 | 0.00 | 0.00 | 0.00 | 14 | 1008.5 |
| 20260507015550 | 70 | 258 | 9.0 | 16.0 | 0.00 | 0.00 | 0.00 | 14 | 1008.4 |
| 20260507015048 | 70 | 252 | 9.0 | 18.0 | 0.00 | 0.00 | 0.00 | 13 | 1008.3 |
| 20260507014552 | 71 | 265 | 11.0 | 19.0 | 0.00 | 0.00 | 0.00 | 14 | 1008.3 |
| 20260507014047 | 71 | 244 | 9.0 | 16.0 | 0.00 | 0.00 | 0.00 | 14 | 1008.2 |
| 20260507013547 | 71 | 256 | 12.0 | 17.0 | 0.00 | 0.00 | 0.00 | 13 | 1008.2 |
| 20260507013054 | 72 | 248 | 11.0 | 17.0 | 0.00 | 0.00 | 0.00 | 13 | 1008.2 |
| 20260507012546 | 72 | 262 | 9.0 | 18.0 | 0.00 | 0.00 | 0.00 | 14 | 1008.2 |
| 20260507012046 | 72 | 272 | 11.0 | 18.0 | 0.00 | 0.00 | 0.00 | 14 | 1008.2 |
| 20260507011546 | 72 | 258 | 10.0 | 17.0 | 0.00 | 0.00 | 0.00 | 14 | 1008.1 |
| 20260507011045 | 72 | 222 | 10.0 | 17.0 | 0.00 | 0.00 | 0.00 | 13 | 1008.1 |
| 20260507010545 | 72 | 276 | 13.0 | 20.0 | 0.00 | 0.00 | 0.00 | 14 | 1008.0 |
| 20260507010048 | 72 | 302 | 13.0 | 22.0 | 0.00 | 0.00 | 0.00 | 14 | 1008.0 |
| 20260507005545 | 73 | 251 | 13.0 | 22.0 | 0.00 | 0.00 | 0.00 | 14 | 1007.9 |
| 20260507005047 | 73 | 272 | 12.0 | 19.0 | 0.00 | 0.00 | 0.00 | 14 | 1007.9 |
| 20260507004553 | 73 | 249 | 12.0 | 19.0 | 0.00 | 0.00 | 0.00 | 13 | 1007.9 |
| 20260507004044 | 73 | 263 | 11.0 | 23.0 | 0.00 | 0.00 | 0.00 | 14 | 1007.7 |
| 20260507003543 | 73 | 250 | 15.0 | 23.0 | 0.00 | 0.00 | 0.00 | 14 | 1007.8 |
| 20260507003048 | 73 | 264 | 11.0 | 18.0 | 0.00 | 0.00 | 0.00 | 13 | 1007.7 |
| 20260507002543 | 73 | 282 | 10.0 | 19.0 | 0.00 | 0.00 | 0.00 | 14 | 1007.7 |
| 20260507002042 | 73 | 231 | 12.0 | 23.0 | 0.00 | 0.00 | 0.00 | 14 | 1007.6 |
| 20260507001545 | 73 | 244 | 14.0 | 23.0 | 0.00 | 0.00 | 0.00 | 14 | 1007.6 |
| 20260507001041 | 73 | 243 | 13.0 | 24.0 | 0.00 | 0.00 | 0.00 | 14 | 1007.5 |
| 20260507000545 | 73 | 252 | 17.0 | 24.0 | 0.00 | 0.00 | 0.00 | 14 | 1007.6 |
| 20260507000041 | 73 | 280 | 13.0 | 20.0 | 0.00 | 0.00 | 0.00 | 14 | 1007.6 |
| 20260506235539 | 73 | 247 | 13.0 | 22.0 | 0.00 | 0.00 | 0.00 | 14 | 1007.5 |
| 20260506235039 | 73 | 253 | 15.0 | 22.0 | 0.00 | 0.00 | 0.00 | 14 | 1007.5 |
| 20260506234543 | 74 | 257 | 13.0 | 24.0 | 0.00 | 0.00 | 0.00 | 14 | 1007.3 |
| 20260506234038 | 73 | 260 | 11.0 | 24.0 | 0.00 | 0.00 | 0.00 | 14 | 1007.3 |
| 20260506233638 | 74 | 245 | 13.0 | 21.0 | 0.00 | 0.00 | 0.00 | 14 | 1007.4 |
| 20260506233041 | 73 | 256 | 12.0 | 31.0 | 0.00 | 0.00 | 0.00 | 14 | 1007.4 |
| 20260506232536 | 73 | 258 | 16.0 | 31.0 | 0.00 | 0.00 | 0.00 | 14 | 1007.5 |
| 20260506232036 | 73 | 266 | 19.0 | 30.0 | 0.00 | 0.00 | 0.00 | 14 | 1007.5 |
| 20260506231536 | 73 | 231 | 15.0 | 25.0 | 0.00 | 0.00 | 0.00 | 14 | 1007.5 |
| 20260506231037 | 73 | 276 | 11.0 | 21.0 | 0.00 | 0.00 | 0.00 | 14 | 1007.5 |
| 20260506230536 | 73 | 281 | 16.0 | 22.0 | 0.00 | 0.00 | 0.00 | 14 | 1007.6 |
| 20260506230044 | 73 | 277 | 15.0 | 30.0 | 0.00 | 0.00 | 0.00 | 14 | 1007.6 |
| 20260506225534 | 74 | 270 | 12.0 | 30.0 | 0.00 | 0.00 | 0.00 | 14 | 1007.6 |
| 20260506225034 | 73 | 273 | 17.0 | 25.0 | 0.00 | 0.00 | 0.00 | 14 | 1007.5 |
| 20260506224534 | 73 | 259 | 15.0 | 21.0 | 0.00 | 0.00 | 0.00 | 14 | 1007.6 |
| 20260506224032 | 74 | 239 | 14.0 | 26.0 | 0.00 | 0.00 | 0.00 | 14 | 1007.6 |
| 20260506223532 | 74 | 246 | 14.0 | 27.0 | 0.00 | 0.00 | 0.00 | 14 | 1007.6 |
| 20260506223041 | 73 | 272 | 12.0 | 25.0 | 0.00 | 0.00 | 0.00 | 14 | 1007.7 |
| 20260506222531 | 73 | 258 | 17.0 | 25.0 | 0.00 | 0.00 | 0.00 | 14 | 1007.7 |
| 20260506222031 | 74 | 210 | 16.0 | 24.0 | 0.00 | 0.00 | 0.00 | 14 | 1007.7 |
| 20260506221632 | 73 | 253 | 15.0 | 22.0 | 0.00 | 0.00 | 0.00 | 15 | 1007.7 |
| 20260506221029 | 73 | 238 | 9.0 | 23.0 | 0.00 | 0.00 | 0.00 | 15 | 1007.6 |
| 20260506220529 | 73 | 250 | 12.0 | 24.0 | 0.00 | 0.00 | 0.00 | 15 | 1007.7 |
| 20260506220028 | 74 | 203 | 16.0 | 24.0 | 0.00 | 0.00 | 0.00 | 16 | 1007.7 |
| 20260506215527 | 74 | 285 | 12.0 | 23.0 | 0.00 | 0.00 | 0.00 | 17 | 1007.8 |
| 20260506215029 | 73 | 266 | 11.0 | 24.0 | 0.00 | 0.00 | 0.00 | 16 | 1007.8 |
| 20260506214537 | 73 | 270 | 17.0 | 27.0 | 0.00 | 0.00 | 0.00 | 16 | 1007.9 |
| 20260506214025 | 72 | 290 | 14.0 | 27.0 | 0.00 | 0.00 | 0.00 | 16 | 1007.9 |
| 20260506213528 | 73 | 260 | 12.0 | 19.0 | 0.00 | 0.00 | 0.00 | 16 | 1008.0 |
| 20260506213024 | 72 | 279 | 10.0 | 22.0 | 0.00 | 0.00 | 0.00 | 18 | 1007.9 |
| 20260506212524 | 73 | 267 | 17.0 | 24.0 | 0.00 | 0.00 | 0.00 | 18 | 1008.0 |
| 20260506212024 | 73 | 275 | 15.0 | 24.0 | 0.00 | 0.00 | 0.00 | 18 | 1008.1 |
| 20260506211523 | 73 | 239 | 7.0 | 22.0 | 0.00 | 0.00 | 0.00 | 19 | 1008.0 |
| 20260506211023 | 73 | 257 | 15.0 | 22.0 | 0.00 | 0.00 | 0.00 | 18 | 1008.2 |
| 20260506210523 | 72 | 248 | 11.0 | 24.0 | 0.00 | 0.00 | 0.00 | 19 | 1008.1 |
| 20260506210026 | 72 | 239 | 14.0 | 24.0 | 0.00 | 0.00 | 0.00 | 18 | 1008.2 |
| 20260506205521 | 72 | 249 | 10.0 | 20.0 | 0.00 | 0.00 | 0.00 | 18 | 1008.2 |
| 20260506205020 | 72 | 239 | 11.0 | 26.0 | 0.00 | 0.00 | 0.00 | 19 | 1008.4 |
| 20260506204519 | 72 | 241 | 10.0 | 26.0 | 0.00 | 0.00 | 0.00 | 20 | 1008.3 |
| 20260506204017 | 72 | 222 | 7.0 | 23.0 | 0.00 | 0.00 | 0.00 | 21 | 1008.3 |
| 20260506203517 | 72 | 259 | 12.0 | 23.0 | 0.00 | 0.00 | 0.00 | 21 | 1008.4 |
| 20260506203019 | 71 | 170 | 6.0 | 19.0 | 0.00 | 0.00 | 0.00 | 22 | 1008.4 |
| 20260506202516 | 71 | 266 | 12.0 | 19.0 | 0.00 | 0.00 | 0.00 | 21 | 1008.5 |
| 20260506202016 | 71 | 235 | 4.0 | 20.0 | 0.00 | 0.00 | 0.00 | 21 | 1008.4 |
| 20260506201516 | 71 | 286 | 12.0 | 20.0 | 0.00 | 0.00 | 0.00 | 21 | 1008.5 |
| 20260506201019 | 71 | 276 | 13.0 | 20.0 | 0.00 | 0.00 | 0.00 | 23 | 1008.6 |
| 20260506200513 | 70 | 222 | 9.0 | 18.0 | 0.00 | 0.00 | 0.00 | 23 | 1008.6 |
| 20260506200013 | 70 | 191 | 10.0 | 15.0 | 0.00 | 0.00 | 0.00 | 23 | 1008.6 |
| 20260506195513 | 71 | 258 | 10.0 | 17.0 | 0.00 | 0.00 | 0.00 | 23 | 1008.9 |
| 20260506195012 | 70 | 254 | 7.0 | 15.0 | 0.00 | 0.00 | 0.00 | 24 | 1008.8 |
| 20260506194511 | 70 | 217 | 6.0 | 18.0 | 0.00 | 0.00 | 0.00 | 24 | 1008.9 |
| 20260506194017 | 70 | 237 | 12.0 | 19.0 | 0.00 | 0.00 | 0.00 | 25 | 1009.0 |
| 20260506193509 | 70 | 269 | 6.0 | 12.0 | 0.00 | 0.00 | 0.00 | 26 | 1008.9 |
| 20260506193008 | 69 | 245 | 5.0 | 18.0 | 0.00 | 0.00 | 0.00 | 26 | 1009.0 |